Temp
4 4 4 4 4 4 4 4 4 4 4 4 4 4 4 4 4 3 3 3 3 3 3 3 3 3 3 3 3 3 3 3 2 2 2 2 2 2 2 2 2 2 2 2 2 2 1 1 1 1 1 2 2 2 2 2 1 1 1 1 1 1 1
4 4 4 3 3 3 3 3 3 3 3 3 3 4 4 4 4 4 3 3 3 2 2 3 3 3 3 3 2 2 2 2 2 2 2 2 2 2 2 2 2 2 2 2 2 2 1 1 1 1 1 1 1 2 2 1 1 1 1 1 1 1 1
4 4 3 3 3 3 3 3 3 3 3 3 3 4 4 4 4 4 4 3 3 3 2 2 2 2 2 2 2 2 2 2 2 2 2 2 2 2 2 2 1 1 2 2 2 2 1 1 1 1 1 1 1 2 2 1 1 1 1 1 1 1 1
3 3 3 3 3 3 3 3 3 3 3 3 3 3 4 4 4 4 4 3 3 3 2 2 2 2 2 2 2 2 2 2 2 2 2 2 2 2 2 1 1 1 1 1 1 1 1 1 1 1 1 1 1 1 1 1 1 1 1 1 1 1 1
3 3 3 3 3 3 3 3 3 3 3 3 3 3 3 4 4 4 4 3 3 2 2 2 2 2 2 2 2 2 2 2 2 2 2 2 2 2 2 1 1 1 1 1 1 1 0 0 0 0 1 1 1 1 1 1 1 1 1 1 1 1 1
3 3 3 3 3 3 2 2 2 2 2 2 3 3 3 3 4 4 4 3 3 3 3 2 2 2 2 2 2 2 2 2 2 2 2 2 2 2 1 1 1 1 1 1 1 0 -0 -0 0 0 0 1 1 1 1 1 1 1 1 1 1 1 1
3 3 3 3 2 2 2 2 2 2 2 2 2 2 3 3 3 4 4 4 3 3 3 3 2 2 2 2 2 1 1 1 1 1 1 2 2 2 1 1 1 1 1 1 1 1 0 0 0 0 0 0 0 0 1 1 0 0 1 1 1 1 0
3 3 3 2 2 2 2 2 2 2 2 2 2 2 2 3 3 4 4 4 4 3 3 2 2 2 2 2 1 1 1 1 1 1 1 1 1 1 1 1 1 1 1 1 1 1 0 0 0 0 0 0 0 1 1 1 0 -0 0 0 0 0 0
3 3 2 2 2 2 2 2 2 2 2 2 2 2 2 3 3 3 4 4 3 3 3 2 2 1 1 1 1 1 1 1 1 1 1 1 1 1 1 1 1 1 1 1 1 1 1 1 1 1 1 1 0 0 1 1 0 -0 -0 -0 -0 -0 -0
2 2 2 2 2 2 2 2 2 2 2 2 2 2 2 3 3 3 4 3 3 3 2 2 2 1 1 1 1 1 1 1 1 1 1 1 1 1 0 0 0 0 0 1 1 1 1 1 1 1 1 1 0 0 0 1 0 -0 -1 -1 -0 -1 -1
2 2 2 2 2 2 2 2 2 2 2 2 2 2 2 3 3 3 3 3 3 2 2 2 2 2 1 1 1 1 1 1 1 1 0 0 0 0 0 0 0 0 0 1 1 1 1 1 1 1 1 1 1 0 0 0 -0 -0 -0 -1 -1 -1 -1
2 2 2 2 2 2 2 2 1 1 1 1 1 2 2 3 3 3 3 3 3 2 2 2 2 2 1 1 1 1 1 1 1 1 0 0 0 0 0 0 0 0 1 1 1 1 0 0 0 0 0 1 0 0 0 -0 -0 -0 -0 -1 -1 -1 -1
2 2 2 2 2 2 2 1 1 1 1 1 1 2 2 3 3 3 3 3 3 2 2 2 2 2 1 1 1 1 1 1 1 1 0 1 1 1 1 1 1 1 1 1 1 0 0 -0 -0 -0 -0 -0 -0 -0 -0 -0 -1 -0 -0 -0 -0 -0 -1
2 2 2 2 1 1 1 1 1 1 1 1 1 1 2 2 3 3 3 3 3 3 3 2 2 2 2 1 1 1 1 1 1 1 1 1 1 1 1 1 1 1 1 1 0 0 -0 -0 -0 -0 -1 -1 -0 -0 -0 -0 -0 -0 -0 0 0 0 -0
1 1 2 2 1 2 2 1 1 2 2 1 1 1 2 2 2 3 3 3 3 3 2 2 2 2 2 2 2 1 1 1 1 1 1 1 1 1 1 1 1 1 1 1 0 0 0 0 0 0 -0 -0 -0 -0 -1 -0 -0 -0 -0 0 1 1 0
2 1 1 1 2 2 2 2 2 2 2 1 1 1 1 2 2 3 2 2 2 2 2 2 2 2 2 1 1 1 1 1 1 1 1 1 1 1 1 1 0 0 0 0 0 0 0 0 0 0 -0 -0 -0 -0 -1 -0 -0 -0 -0 0 0 0 0
1 1 1 2 2 2 2 2 2 2 2 2 1 1 1 2 2 2 2 2 2 2 2 2 2 2 1 1 1 1 1 1 1 0 0 0 0 0 0 0 0 -0 -0 -0 -0 -0 0 0 0 -0 -0 -0 -0 -0 -0 -0 -0 -0 -0 -0 -0 -0 -0
1 1 1 2 2 2 2 2 2 2 2 2 1 1 1 1 2 2 2 2 1 1 2 2 2 1 1 1 1 1 1 1 1 1 0 0 0 0 0 0 0 -0 -0 -0 -0 0 0 -0 -0 -0 -0 -0 -0 -0 -0 -0 -0 -0 -0 -0 -1 -1 -0
1 1 1 1 1 1 1 1 1 2 2 2 2 1 1 1 2 2 1 1 1 1 1 1 1 1 1 1 1 1 1 0 1 1 0 0 0 0 0 0 0 0 -0 -0 -0 -0 -0 -0 -0 -0 -0 -0 -0 -0 -0 -0 -1 -1 -0 -1 -1 -1 -1
1 1 1 1 1 1 1 1 1 1 1 1 2 1 1 1 1 2 1 1 1 1 1 1 1 1 0 0 0 0 1 0 0 0 0 0 0 0 0 0 -0 -0 -0 -0 -0 -0 -0 -0 -0 -0 -0 -0 -0 -1 -1 -1 -1 -1 -1 -1 -1 -1 -1
1 1 1 1 1 1 1 1 1 1 1 1 1 1 1 1 1 1 1 1 1 1 1 0 0 0 0 0 0 0 0 0 0 0 0 -0 -0 -0 -0 -0 -0 -0 -0 -0 -0 -0 -0 -0 -0 -0 -0 -0 -1 -1 -1 -1 -1 -1 -1 -1 -1 -1 -1
1 1 1 1 1 1 1 1 1 1 1 1 1 1 1 1 1 1 1 1 1 1 1 0 0 0 0 0 0 0 0 0 0 0 0 0 -0 -0 -0 -0 -0 -0 -0 -0 -0 -0 -0 -1 -0 -0 -1 -1 -1 -1 -1 -1 -1 -1 -1 -1 -1 -1 -0
1 1 1 1 1 1 1 1 2 2 1 1 1 1 1 1 1 1 1 1 1 1 1 0 0 0 -0 -0 -0 -0 -0 -0 0 0 0 0 0 -0 -0 -0 -0 -0 -0 -0 -1 -1 -1 -1 -1 -1 -1 -1 -1 -1 -1 -1 -2 -2 -2 -2 -2 -1 -1
1 1 1 1 1 1 1 1 2 2 1 1 1 1 1 1 1 1 1 1 1 1 0 0 0 -0 -0 -0 -0 -0 -0 -0 -0 -0 -0 -0 -0 -0 -0 -0 -0 -0 -1 -1 -1 -1 -1 -1 -1 -1 -1 -1 -1 -1 -1 -1 -2 -2 -2 -2 -2 -2 -2
1 1 1 0 1 1 1 1 1 1 1 1 1 1 1 1 1 1 0 0 0 0 0 0 -0 -0 -0 -0 -0 -0 -0 -1 -1 -1 -1 -1 -1 -1 -1 -0 -0 -0 -0 -1 -1 -1 -1 -1 -1 -1 -1 -1 -1 -1 -1 -1 -2 -2 -2 -2 -2 -2 -2
1 1 1 0 1 1 1 1 1 1 1 1 1 1 1 1 0 0 0 -0 -0 0 -0 -0 -0 -0 -0 -1 -1 -1 -1 -1 -1 -1 -1 -1 -1 -1 -1 -1 -1 -0 -1 -1 -1 -1 -1 -1 -1 -2 -2 -2 -2 -2 -2 -2 -2 -2 -2 -2 -2 -2 -2
1 1 1 1 1 1 1 1 1 1 0 -0 0 0 0 -0 -0 -1 -1 -1 -1 -0 -0 -0 -0 -0 -1 -1 -1 -1 -1 -1 -1 -1 -1 -1 -1 -1 -1 -1 -1 -1 -1 -1 -1 -2 -2 -2 -2 -2 -2 -2 -2 -2 -2 -2 -2 -2 -2 -2 -2 -3 -2
1 1 1 1 1 1 1 0 0 0 -0 -0 -0 -0 -0 -0 -1 -1 -1 -1 -1 -1 -1 -1 -1 -1 -1 -1 -1 -1 -1 -1 -1 -1 -1 -1 -1 -1 -1 -1 -1 -1 -2 -2 -2 -2 -2 -2 -2 -2 -2 -2 -2 -2 -2 -2 -2 -2 -2 -2 -3 -3 -3
0 0 0 -0 -0 -0 -0 -0 -0 -1 -1 -1 -1 -1 -1 -1 -0 -0 -0 -0 -1 -1 -1 -1 -1 -1 -1 -1 -1 -1 -1 -0 -1 -1 -1 -1 -1 -1 -1 -1 -1 -1 -2 -2 -2 -1 -2 -1 -1 -2 -1 -1 -2 -2 -2 -2 -2 -2 -3 -2 -3 -3 -3
-0 -1 -1 -1 -1 -1 -1 -1 -1 -1 -1 -1 -1 -0 -0 -0 -0 -0 0 -0 -0 -0 -0 -1 -1 -1 -1 -1 -1 -1 -1 -1 -1 -1 -1 -1 -1 -1 -1 -1 -1 -1 -1 -1 -1 -1 -2 -2 -2 -2 -1 -1 -2 -2 -2 -2 -2 -3 -3 -3 -3 -3 -3
-1 -1 -1 -1 -1 -1 -1 -1 -1 -1 -1 -1 -1 -0 -0 -0 -0 -0 -0 -0 -0 -0 -0 -0 -1 -1 -1 -1 -1 -1 -1 -1 -1 -1 -1 -1 -1 -1 -1 -1 -1 -1 -1 -1 -1 -1 -1 -2 -2 -2 -2 -2 -2 -2 -2 -2 -3 -3 -3 -3 -3 -3 -4
-1 -1 -1 -1 -1 -1 -1 -1 -1 -1 -1 -1 -1 -0 -0 -0 -0 -0 -0 -0 -0 -0 -0 -1 -1 -1 -1 -1 -1 -1 -1 -1 -1 -1 -1 -1 -1 -1 -1 -1 -1 -1 -1 -1 -2 -2 -2 -2 -2 -2 -2 -2 -2 -2 -2 -2 -3 -3 -3 -4 -4 -4 -3
-1 -2 -2 -1 -1 -1 -1 -1 -1 -1 -1 -1 -1 -1 -1 -1 -1 -1 -1 -1 -1 -1 -1 -1 -1 -1 -1 -1 -1 -1 -1 -1 -1 -1 -1 -1 -1 -1 -1 -1 -1 -1 -1 -1 -2 -2 -2 -2 -2 -2 -2 -2 -2 -2 -3 -3 -3 -3 -4 -4 -4 -3 -3
-2 -2 -2 -1 -1 -1 -1 -1 -1 -1 -1 -1 -1 -1 -1 -1 -1 -1 -1 -1 -1 -1 -1 -1 -1 -1 -1 -1 -1 -1 -1 -1 -1 -1 -1 -1 -2 -2 -2 -2 -1 -1 -2 -2 -2 -2 -2 -2 -2 -2 -2 -2 -2 -3 -3 -3 -3 -4 -4 -4 -4 -3 -3
-2 -2 -2 -2 -2 -2 -1 -1 -1 -1 -1 -1 -1 -1 -1 -1 -1 -1 -1 -1 -1 -1 -1 -1 -1 -1 -1 -1 -1 -1 -1 -1 -1 -2 -2 -2 -2 -2 -2 -2 -2 -2 -2 -2 -2 -2 -2 -2 -2 -2 -2 -2 -3 -3 -4 -4 -4 -4 -4 -4 -4 -3 -3
-2 -2 -2 -2 -2 -2 -2 -2 -2 -2 -2 -1 -1 -1 -1 -1 -1 -1 -1 -1 -1 -1 -1 -1 -1 -1 -1 -1 -1 -1 -1 -1 -2 -2 -2 -2 -2 -2 -2 -2 -2 -2 -2 -2 -2 -2 -2 -2 -2 -2 -2 -3 -3 -3 -4 -4 -5 -5 -4 -4 -4 -4 -3
-2 -2 -2 -2 -2 -2 -2 -2 -2 -2 -2 -2 -1 -1 -1 -1 -1 -1 -1 -2 -2 -2 -2 -2 -2 -1 -1 -1 -2 -2 -2 -2 -2 -2 -2 -3 -3 -3 -3 -3 -3 -3 -3 -3 -3 -3 -3 -2 -2 -2 -2 -3 -3 -4 -4 -4 -5 -5 -4 -4 -4 -4 -4
Height
3147 3148 3148 3149 3149 3149 3148 3148 3148 3148 3148 3148 3148 3147 3147 3146 3147 3147 3148 3149 3149 3150 3151 3152 3153 3154 3154 3154 3154 3155 3156 3157 3157 3158 3158 3159 3160 3160 3161 3162 3162 3162 3163 3163 3163 3163 3164 3166 3167 3168 3168 3168 3168 3167 3168 3168 3167 3166 3165 3164 3164 3164 3164
3148 3148 3149 3149 3149 3149 3149 3148 3148 3148 3148 3148 3148 3147 3147 3146 3146 3146 3147 3147 3148 3149 3150 3151 3153 3153 3154 3154 3155 3155 3156 3156 3156 3157 3158 3159 3159 3160 3160 3161 3162 3162 3162 3163 3163 3162 3163 3164 3165 3166 3167 3168 3167 3166 3167 3167 3166 3165 3164 3164 3164 3164 3164
3148 3148 3149 3149 3149 3149 3149 3148 3148 3147 3147 3147 3147 3147 3147 3147 3146 3146 3146 3146 3147 3148 3149 3150 3152 3153 3153 3154 3154 3155 3155 3156 3156 3157 3158 3158 3159 3159 3160 3160 3161 3161 3162 3163 3163 3162 3162 3163 3164 3164 3165 3167 3167 3166 3166 3166 3165 3164 3164 3164 3164 3164 3164
3147 3148 3148 3148 3148 3148 3148 3148 3148 3147 3146 3147 3147 3147 3147 3147 3146 3146 3146 3146 3146 3147 3147 3148 3150 3151 3152 3153 3153 3154 3154 3155 3156 3156 3157 3157 3158 3158 3159 3160 3160 3161 3161 3162 3163 3163 3163 3163 3164 3164 3164 3165 3167 3166 3165 3165 3165 3164 3164 3164 3164 3164 3164
3147 3147 3147 3147 3148 3148 3148 3148 3147 3147 3146 3145 3145 3146 3146 3146 3146 3145 3145 3145 3146 3146 3146 3147 3148 3149 3151 3152 3152 3153 3154 3154 3155 3155 3156 3156 3157 3157 3158 3159 3159 3160 3160 3161 3162 3163 3163 3163 3163 3164 3164 3165 3166 3166 3165 3165 3164 3164 3164 3164 3164 3164 3164
3146 3146 3146 3146 3147 3147 3146 3146 3146 3146 3145 3144 3144 3144 3145 3145 3145 3144 3144 3144 3145 3145 3146 3146 3147 3148 3150 3151 3152 3153 3153 3153 3154 3154 3155 3155 3156 3156 3157 3158 3158 3159 3160 3161 3162 3162 3162 3163 3163 3163 3163 3164 3165 3166 3165 3165 3164 3164 3164 3165 3164 3164 3164
3145 3145 3145 3145 3145 3145 3145 3145 3145 3145 3144 3143 3143 3143 3143 3144 3144 3144 3143 3143 3144 3145 3146 3146 3147 3148 3149 3150 3152 3152 3153 3153 3153 3153 3153 3154 3155 3155 3156 3157 3158 3159 3160 3161 3161 3162 3162 3163 3163 3163 3163 3164 3165 3165 3165 3164 3164 3164 3165 3165 3165 3165 3165
3144 3144 3145 3145 3145 3144 3144 3144 3144 3144 3143 3143 3143 3143 3142 3143 3143 3143 3143 3143 3144 3145 3146 3147 3147 3148 3149 3150 3151 3151 3152 3152 3152 3152 3152 3153 3154 3154 3155 3156 3157 3158 3159 3161 3161 3162 3162 3162 3163 3163 3163 3164 3164 3165 3165 3164 3164 3164 3165 3165 3165 3165 3165
3143 3144 3144 3144 3144 3144 3144 3143 3143 3142 3142 3142 3143 3143 3142 3142 3142 3142 3143 3143 3144 3144 3145 3146 3147 3148 3149 3149 3150 3150 3151 3151 3151 3151 3152 3152 3153 3154 3154 3155 3156 3157 3158 3159 3161 3162 3162 3162 3162 3162 3163 3164 3164 3164 3164 3164 3164 3165 3165 3166 3166 3165 3165
3142 3143 3143 3143 3143 3143 3142 3142 3142 3141 3141 3141 3141 3142 3142 3142 3142 3142 3142 3143 3144 3144 3145 3146 3147 3148 3148 3149 3149 3149 3150 3150 3151 3151 3152 3152 3153 3153 3154 3155 3155 3157 3158 3159 3160 3161 3161 3161 3161 3161 3162 3163 3164 3164 3164 3165 3165 3165 3165 3166 3166 3166 3165
3141 3141 3141 3142 3141 3141 3141 3141 3140 3140 3139 3139 3140 3141 3141 3141 3141 3141 3142 3142 3143 3144 3145 3145 3146 3147 3148 3148 3149 3149 3149 3150 3150 3151 3152 3152 3153 3153 3154 3155 3155 3156 3158 3159 3159 3160 3161 3161 3162 3161 3161 3162 3163 3164 3164 3165 3165 3165 3165 3166 3166 3166 3166
3139 3140 3140 3140 3140 3140 3139 3139 3139 3138 3138 3138 3139 3140 3140 3140 3140 3141 3141 3142 3143 3144 3144 3145 3146 3147 3147 3148 3148 3149 3149 3150 3150 3151 3152 3152 3153 3154 3154 3155 3155 3156 3157 3159 3159 3160 3161 3161 3161 3162 3161 3162 3162 3163 3164 3164 3164 3165 3165 3165 3165 3166 3165
3138 3138 3138 3139 3138 3138 3138 3138 3138 3137 3137 3138 3138 3139 3139 3140 3140 3140 3141 3141 3142 3143 3144 3144 3145 3146 3147 3148 3148 3149 3149 3150 3150 3151 3152 3152 3153 3154 3155 3155 3156 3156 3157 3158 3159 3159 3160 3160 3161 3161 3161 3162 3162 3163 3163 3163 3163 3164 3165 3165 3165 3166 3165
3137 3137 3137 3137 3137 3137 3137 3137 3137 3136 3136 3137 3137 3138 3139 3139 3140 3140 3141 3141 3142 3143 3144 3144 3145 3146 3147 3147 3148 3149 3149 3150 3150 3151 3152 3152 3153 3154 3155 3155 3156 3157 3157 3158 3159 3159 3160 3160 3161 3161 3162 3162 3162 3162 3162 3162 3163 3164 3164 3164 3165 3165 3165
3136 3136 3137 3137 3137 3137 3136 3136 3136 3135 3135 3135 3136 3137 3138 3139 3140 3140 3141 3141 3142 3143 3144 3144 3145 3146 3146 3147 3148 3149 3149 3150 3151 3151 3152 3153 3153 3154 3155 3156 3156 3157 3158 3159 3159 3160 3160 3161 3162 3162 3162 3162 3162 3162 3162 3162 3163 3163 3163 3163 3164 3164 3164
3136 3136 3137 3137 3137 3137 3136 3136 3136 3135 3135 3135 3135 3136 3138 3139 3139 3140 3141 3142 3143 3143 3144 3145 3145 3146 3147 3147 3148 3149 3150 3150 3151 3152 3153 3153 3154 3155 3155 3156 3157 3158 3159 3159 3160 3161 3161 3161 3162 3162 3162 3162 3162 3162 3162 3162 3162 3162 3162 3162 3162 3162 3163
3136 3136 3136 3136 3137 3137 3137 3136 3136 3135 3134 3134 3134 3136 3137 3138 3139 3140 3141 3142 3143 3143 3144 3145 3146 3146 3147 3148 3148 3149 3150 3151 3151 3152 3153 3154 3155 3155 3156 3157 3157 3158 3159 3160 3160 3161 3161 3161 3161 3162 3162 3162 3162 3162 3162 3162 3162 3162 3162 3161 3161 3161 3161
3135 3136 3136 3136 3136 3137 3136 3136 3135 3135 3134 3134 3134 3135 3136 3138 3139 3139 3141 3142 3142 3143 3144 3145 3146 3147 3147 3148 3149 3150 3151 3151 3152 3153 3154 3155 3155 3156 3157 3158 3158 3159 3159 3160 3160 3161 3161 3161 3161 3161 3161 3161 3161 3162 3161 3161 3160 3160 3160 3160 3160 3159 3160
3133 3134 3134 3135 3136 3136 3136 3135 3135 3134 3134 3133 3134 3134 3136 3137 3138 3139 3140 3141 3142 3143 3144 3145 3146 3146 3147 3148 3149 3150 3151 3152 3153 3153 3154 3155 3156 3156 3157 3158 3159 3159 3159 3160 3160 3160 3160 3160 3160 3160 3160 3160 3160 3160 3160 3160 3159 3159 3159 3159 3158 3158 3158
3130 3131 3133 3134 3135 3135 3135 3135 3134 3134 3134 3134 3134 3134 3135 3136 3137 3139 3139 3140 3141 3142 3143 3144 3145 3146 3147 3148 3149 3150 3151 3152 3153 3153 3154 3155 3156 3156 3157 3158 3158 3158 3158 3158 3159 3159 3159 3159 3159 3159 3159 3158 3158 3158 3158 3158 3157 3157 3156 3157 3156 3156 3156
3128 3131 3133 3133 3134 3134 3134 3134 3134 3133 3133 3133 3133 3134 3134 3135 3137 3138 3139 3140 3141 3142 3143 3144 3145 3146 3147 3148 3149 3149 3150 3151 3152 3153 3154 3155 3155 3156 3156 3157 3157 3157 3157 3157 3157 3157 3157 3157 3157 3157 3157 3157 3156 3155 3155 3156 3155 3155 3154 3154 3154 3154 3153
3129 3130 3132 3132 3133 3133 3133 3133 3133 3132 3132 3132 3132 3133 3134 3134 3136 3137 3138 3139 3140 3141 3142 3143 3144 3145 3146 3147 3148 3148 3149 3150 3151 3152 3153 3154 3155 3155 3156 3156 3156 3156 3156 3156 3156 3156 3155 3155 3155 3155 3155 3155 3155 3154 3153 3153 3153 3153 3152 3151 3151 3151 3151
3129 3129 3130 3130 3131 3132 3132 3132 3132 3132 3132 3132 3132 3133 3133 3134 3135 3136 3137 3138 3139 3140 3141 3142 3143 3144 3145 3146 3147 3147 3148 3148 3149 3150 3151 3152 3153 3153 3154 3154 3154 3154 3154 3154 3154 3154 3154 3153 3153 3153 3153 3153 3153 3152 3151 3151 3151 3151 3150 3149 3148 3148 3148
3127 3128 3129 3128 3129 3130 3130 3131 3131 3131 3131 3131 3131 3132 3133 3133 3134 3135 3136 3137 3137 3138 3140 3140 3141 3142 3143 3144 3145 3146 3146 3146 3147 3148 3149 3149 3150 3150 3150 3151 3151 3151 3151 3151 3152 3152 3152 3151 3151 3150 3150 3150 3150 3150 3149 3148 3148 3148 3148 3147 3146 3145 3145
3124 3126 3127 3126 3127 3128 3129 3129 3129 3130 3130 3130 3130 3131 3131 3132 3132 3133 3134 3135 3136 3137 3138 3138 3139 3140 3141 3142 3143 3143 3144 3144 3144 3145 3145 3146 3146 3146 3146 3147 3147 3147 3147 3147 3148 3148 3148 3148 3148 3147 3147 3147 3147 3146 3146 3146 3145 3145 3144 3144 3143 3143 3143
3122 3123 3123 3124 3124 3125 3126 3126 3126 3126 3127 3128 3128 3128 3129 3129 3130 3131 3132 3133 3134 3135 3136 3136 3137 3137 3138 3139 3140 3141 3141 3141 3142 3142 3142 3143 3142 3142 3143 3143 3143 3143 3144 3143 3143 3143 3143 3144 3144 3144 3143 3143 3143 3143 3143 3142 3142 3142 3141 3140 3140 3140 3140
3120 3120 3121 3121 3122 3122 3123 3123 3123 3124 3124 3125 3125 3125 3126 3127 3128 3129 3129 3130 3131 3132 3133 3134 3135 3135 3136 3136 3137 3137 3137 3138 3138 3139 3139 3139 3139 3139 3139 3139 3139 3139 3139 3139 3139 3139 3139 3138 3138 3139 3139 3139 3139 3139 3139 3138 3138 3138 3137 3136 3136 3136 3136
3118 3119 3119 3119 3120 3120 3121 3121 3121 3122 3122 3123 3123 3123 3124 3124 3125 3126 3126 3127 3128 3128 3129 3130 3131 3132 3132 3133 3133 3133 3133 3134 3134 3135 3135 3135 3135 3135 3135 3135 3135 3134 3134 3134 3133 3134 3134 3133 3132 3133 3133 3133 3133 3133 3133 3133 3133 3133 3132 3132 3131 3131 3131
3115 3116 3117 3117 3117 3118 3118 3118 3118 3119 3120 3120 3121 3121 3122 3122 3123 3123 3124 3124 3125 3125 3126 3126 3127 3127 3128 3129 3128 3128 3129 3129 3130 3130 3130 3131 3131 3131 3131 3130 3130 3129 3129 3128 3128 3129 3128 3127 3127 3128 3128 3127 3128 3128 3129 3128 3128 3128 3128 3127 3127 3127 3127
3113 3113 3114 3114 3114 3115 3115 3115 3115 3116 3117 3117 3118 3119 3119 3120 3120 3120 3121 3121 3122 3122 3123 3123 3123 3124 3124 3124 3124 3124 3124 3124 3124 3125 3125 3126 3126 3126 3126 3126 3124 3124 3124 3124 3124 3124 3124 3123 3123 3123 3123 3123 3123 3124 3124 3123 3123 3123 3123 3123 3123 3123 3123
3110 3110 3111 3111 3111 3111 3112 3112 3113 3113 3114 3115 3115 3116 3117 3117 3118 3118 3118 3118 3118 3119 3119 3120 3120 3120 3121 3121 3120 3121 3121 3120 3120 3120 3120 3121 3121 3121 3121 3121 3120 3120 3120 3120 3120 3120 3119 3119 3119 3118 3118 3118 3119 3119 3118 3117 3117 3118 3118 3119 3119 3119 3119
3108 3108 3108 3109 3109 3109 3110 3110 3111 3111 3112 3112 3113 3113 3114 3114 3115 3115 3115 3115 3115 3115 3116 3116 3117 3117 3117 3117 3116 3116 3116 3116 3115 3115 3116 3116 3116 3115 3115 3115 3115 3115 3115 3116 3116 3115 3115 3115 3114 3113 3113 3113 3114 3114 3113 3112 3113 3113 3114 3115 3115 3115 3116
3105 3106 3106 3106 3107 3107 3107 3108 3108 3108 3109 3109 3110 3110 3110 3111 3111 3112 3112 3112 3112 3111 3111 3112 3112 3112 3112 3112 3112 3111 3111 3110 3110 3111 3111 3111 3111 3110 3110 3110 3110 3110 3110 3110 3110 3110 3110 3110 3109 3108 3108 3109 3109 3109 3108 3108 3108 3109 3110 3111 3111 3112 3112
3102 3102 3103 3103 3103 3104 3104 3104 3105 3105 3105 3105 3105 3105 3106 3106 3107 3107 3108 3107 3107 3107 3106 3106 3106 3107 3107 3106 3106 3106 3105 3105 3105 3105 3105 3105 3105 3105 3104 3104 3104 3104 3104 3104 3105 3104 3104 3104 3103 3104 3104 3104 3104 3102 3102 3102 3103 3105 3106 3107 3107 3108 3108
3099 3099 3099 3098 3099 3099 3100 3100 3100 3101 3101 3101 3100 3100 3101 3101 3101 3101 3102 3102 3101 3101 3101 3101 3100 3101 3101 3101 3100 3100 3099 3099 3099 3099 3098 3098 3098 3099 3099 3099 3099 3099 3098 3098 3098 3098 3098 3098 3098 3098 3099 3099 3099 3097 3096 3097 3098 3100 3102 3103 3103 3104 3104
3095 3095 3094 3094 3094 3094 3095 3095 3095 3095 3095 3095 3095 3095 3094 3095 3094 3094 3095 3095 3095 3094 3094 3094 3094 3094 3094 3094 3094 3093 3093 3093 3094 3093 3092 3092 3092 3093 3093 3093 3093 3093 3093 3093 3093 3093 3093 3093 3093 3093 3094 3094 3094 3092 3092 3093 3095 3096 3098 3099 3099 3100 3101
3090 3090 3090 3090 3089 3089 3089 3089 3089 3089 3089 3088 3088 3088 3088 3087 3087 3087 3087 3087 3087 3087 3087 3086 3086 3086 3086 3086 3087 3087 3087 3087 3088 3087 3086 3086 3087 3087 3088 3088 3088 3088 3088 3088 3088 3087 3087 3088 3088 3089 3089 3089 3089 3089 3089 3090 3091 3093 3094 3095 3096 3097 3097
Wind_Speed
8 6 6 6 5 4 4 3 2 1 1 2 2 1 1 2 4 6 8 10 10 11 11 11 11 12 13 14 13 12 12 13 14 14 14 13 13 13 14 14 15 15 14 12 12 11 9 9 8 8 7 7 7 7 6 5 5 5 6 8 8 7 7
7 5 5 4 4 3 2 1 0 0 1 1 1 1 1 1 1 1 4 7 9 11 10 10 10 11 12 12 12 12 13 14 14 14 14 13 12 13 13 13 14 14 14 13 13 12 10 8 7 7 7 6 7 7 5 3 4 5 7 7 5 5 5
6 5 3 2 1 0 1 3 3 4 3 3 3 3 2 2 2 1 1 4 7 9 10 11 11 11 12 12 12 12 12 13 12 12 12 12 12 13 12 12 13 13 13 12 12 12 10 9 7 7 8 7 6 6 5 3 5 6 7 6 4 4 3
6 5 3 2 2 3 4 6 7 8 7 6 5 4 3 2 1 0 0 2 4 6 9 11 12 12 13 12 11 12 12 12 12 12 12 12 13 13 12 12 13 12 11 10 10 10 9 8 7 8 9 8 6 5 5 5 8 9 7 6 5 4 3
8 6 4 3 4 5 6 7 7 7 8 8 7 6 5 4 4 2 1 2 4 5 7 8 10 12 13 12 11 11 11 11 11 11 12 12 13 12 12 13 13 13 12 11 10 8 7 7 7 8 9 8 6 5 6 8 9 9 7 5 5 4 3
9 7 6 6 7 7 8 8 7 7 7 7 7 6 5 5 6 3 1 2 4 6 7 7 7 10 11 10 9 8 7 8 10 11 13 13 13 12 13 13 13 13 13 12 11 10 9 9 8 8 8 7 6 6 8 9 9 8 6 5 5 5 4
10 8 8 9 9 9 9 9 8 6 5 5 5 5 5 6 7 5 3 2 2 4 4 6 7 8 8 7 6 6 6 7 9 11 12 12 12 12 13 13 13 13 12 11 10 11 11 10 10 8 7 8 8 8 9 9 9 7 5 5 5 5 4
12 10 9 9 9 9 9 8 7 6 5 6 5 4 4 5 7 6 4 3 2 2 3 6 7 7 7 6 6 5 4 5 6 7 8 9 9 10 11 12 12 11 10 9 9 10 11 11 10 10 8 9 8 8 9 9 9 8 7 5 5 5 4
13 11 8 8 7 8 8 7 6 5 5 6 6 5 4 5 7 6 5 5 4 3 4 6 7 7 7 7 6 5 4 3 3 4 5 6 7 7 8 9 10 9 8 8 8 9 10 11 12 12 9 7 6 6 8 10 10 9 8 7 5 4 3
15 12 9 8 7 7 7 6 5 4 2 4 6 6 5 5 6 6 6 5 5 5 5 6 7 8 8 7 6 5 4 3 2 3 3 4 5 6 7 8 9 8 8 9 9 9 11 12 12 11 9 6 4 5 7 10 10 9 9 8 6 4 3
16 12 10 8 6 6 6 6 6 4 0 2 4 6 5 5 6 6 6 6 7 7 7 7 7 8 7 6 5 3 2 2 2 2 3 4 5 6 8 9 9 10 10 10 11 11 11 12 11 9 8 4 2 5 8 9 8 7 7 7 6 5 4
14 12 10 7 6 6 6 6 6 5 1 2 4 4 5 6 6 6 7 7 8 8 8 8 8 8 8 6 5 3 2 2 2 3 4 6 7 8 9 10 11 11 10 10 10 11 10 10 9 7 6 4 2 5 7 8 7 7 7 7 7 6 5
14 12 9 6 5 5 5 5 6 5 3 3 5 5 5 6 6 6 7 7 8 9 9 8 8 8 8 6 5 4 3 3 4 6 7 7 8 9 10 11 11 11 10 10 10 9 9 9 7 6 6 6 6 6 7 7 7 7 8 8 8 7 7
14 12 8 5 4 4 5 5 5 5 4 3 7 7 6 6 6 7 8 8 8 9 8 8 8 8 7 5 4 3 3 4 5 6 7 7 8 8 9 10 11 11 10 10 10 9 9 9 8 7 7 9 8 6 6 6 6 7 9 9 9 8 9
14 10 7 5 4 5 5 5 4 4 3 3 7 9 7 7 7 8 9 9 9 9 9 9 9 9 8 6 5 4 4 4 5 5 6 6 7 8 9 9 9 9 10 10 10 10 9 9 7 7 7 8 8 7 7 7 7 9 11 10 10 10 10
12 8 6 6 6 6 5 5 4 3 2 4 8 9 8 7 9 10 10 10 9 9 9 9 9 10 9 8 6 5 5 6 6 6 7 7 8 8 9 9 8 8 8 8 9 8 7 6 6 6 7 8 9 10 11 11 11 12 13 13 12 12 12
10 7 7 7 7 6 5 5 4 2 3 5 9 11 9 9 11 11 10 10 10 9 9 9 9 10 10 9 8 7 6 6 8 8 9 9 8 8 8 8 8 8 7 7 8 7 7 7 7 7 9 10 11 12 13 14 14 14 14 15 15 14 14
9 8 8 8 8 6 5 5 4 3 4 6 8 11 11 10 11 12 10 10 10 9 9 9 9 9 10 9 9 9 8 8 8 9 9 9 8 8 8 7 7 7 7 7 7 7 7 7 8 9 10 11 11 12 13 14 15 16 16 16 17 16 16
10 10 9 9 8 6 5 5 5 5 5 6 7 9 11 11 11 12 11 10 10 9 8 8 8 9 9 9 9 9 9 9 9 8 8 8 8 8 7 7 6 6 6 6 7 7 7 8 9 10 10 12 12 12 12 14 16 17 16 15 17 17 17
12 10 10 10 9 8 6 6 5 6 7 7 7 8 10 11 11 11 11 10 10 9 8 8 8 8 8 8 9 9 10 10 10 9 8 8 7 7 6 6 6 7 7 8 9 9 10 10 11 12 13 14 15 14 14 15 17 18 17 16 17 18 18
12 11 11 10 10 9 8 7 6 7 7 8 8 8 9 10 11 11 10 10 10 10 10 9 9 9 9 9 10 10 10 10 10 10 9 9 8 7 7 8 8 10 11 12 12 12 12 12 13 14 15 16 16 17 16 16 17 19 19 19 20 20 20
13 13 12 12 12 10 9 8 7 7 7 7 7 7 8 9 10 11 11 10 10 10 10 10 10 10 10 10 10 11 11 11 11 11 11 11 11 11 11 12 12 13 15 15 15 15 14 14 15 17 17 17 17 17 18 18 18 19 21 23 23 23 22
16 16 16 15 14 12 10 9 8 7 7 7 7 6 7 8 10 10 11 11 11 12 12 12 12 13 13 12 12 13 13 14 14 14 15 15 16 16 16 16 17 17 18 17 17 17 17 18 19 19 19 19 18 18 19 20 20 21 22 24 26 26 25
17 18 18 16 15 13 12 10 9 8 7 7 8 7 7 8 9 11 11 12 12 13 14 14 15 16 16 15 16 16 17 18 18 19 19 19 20 21 21 21 21 21 21 21 21 20 21 22 22 22 21 21 21 21 22 23 23 22 23 25 27 28 27
19 18 17 15 14 13 12 11 10 9 9 9 9 9 9 9 10 12 12 13 14 15 15 16 16 17 18 17 17 19 20 22 23 23 23 24 24 25 25 25 25 25 25 25 25 25 25 25 25 25 24 24 24 25 26 26 26 26 25 26 27 28 28
19 18 17 15 15 15 14 13 12 12 11 11 10 10 10 10 11 12 12 12 14 15 16 17 18 18 19 19 19 20 22 23 23 24 25 26 27 28 28 29 29 29 29 29 29 29 28 28 27 27 26 26 27 28 29 29 29 29 29 29 28 29 29
19 20 19 18 17 17 16 15 14 13 12 12 11 11 10 10 11 12 12 13 14 14 14 16 18 19 20 21 21 22 23 23 24 24 25 26 27 28 29 30 30 31 32 33 33 33 32 31 30 29 29 29 30 31 31 31 31 32 32 32 31 31 31
21 20 20 19 18 17 16 15 14 13 12 12 12 12 11 12 13 13 14 15 16 16 16 16 17 18 19 20 21 22 23 23 24 25 25 26 27 28 29 30 30 31 32 34 35 35 35 34 32 30 31 31 32 33 32 33 33 32 32 32 32 31 32
22 21 20 19 18 17 17 16 16 15 15 15 14 14 14 14 15 15 16 17 18 18 19 19 19 20 20 21 21 22 22 22 23 24 25 25 26 27 28 29 29 29 30 32 32 33 34 34 33 32 32 33 34 34 34 34 33 31 30 31 31 31 32
23 22 21 20 19 19 19 19 18 18 17 17 17 17 18 18 18 19 19 20 21 21 21 22 22 22 22 22 23 23 24 26 27 27 28 28 28 29 29 29 30 30 30 31 31 32 33 33 34 34 34 35 35 35 36 36 34 30 29 30 30 31 30
23 22 22 22 22 21 22 21 21 21 21 21 21 21 21 22 22 23 24 24 25 26 25 25 25 25 25 26 27 27 27 29 31 31 31 31 32 33 33 33 33 33 32 33 33 33 33 33 34 36 36 36 36 37 38 37 33 29 28 29 30 30 28
23 22 22 22 23 23 23 23 23 23 23 24 24 25 26 27 27 27 28 28 29 30 30 29 29 29 30 30 31 32 32 34 35 35 35 35 35 36 36 35 35 35 35 35 35 35 35 34 35 37 38 37 37 38 39 36 31 28 27 28 29 28 28
23 23 24 25 25 25 25 25 25 26 26 27 28 29 30 31 31 31 31 32 33 34 34 34 34 35 35 36 37 38 39 40 40 39 38 38 38 39 39 39 38 38 37 37 36 36 36 35 36 38 38 37 38 40 39 35 30 27 27 28 28 29 29
24 25 26 27 28 28 28 29 29 30 31 32 32 33 34 35 35 36 36 37 38 38 39 39 39 40 41 41 42 43 44 44 44 43 42 41 41 40 40 39 38 38 37 36 36 36 36 35 36 36 36 36 39 39 36 31 28 26 27 30 30 29 29
27 28 29 30 31 32 33 34 35 36 37 38 38 39 40 41 42 42 42 42 42 42 43 43 44 44 45 45 45 46 46 46 45 44 44 43 42 41 39 38 37 37 35 35 35 35 34 34 34 34 34 34 37 37 32 29 27 28 30 32 31 30 29
33 34 35 35 36 38 39 39 40 41 42 43 44 44 45 45 45 45 45 45 45 46 47 47 47 48 48 48 48 48 48 47 45 44 44 44 41 39 37 36 35 34 33 33 33 33 33 33 33 33 32 32 34 36 33 30 28 30 32 32 31 29 28
36 37 37 38 38 39 40 41 41 42 43 44 45 46 46 47 47 47 48 48 47 48 49 50 51 51 50 50 49 48 47 46 44 44 44 42 39 37 35 33 32 32 32 32 32 32 33 33 32 33 32 30 32 35 34 32 31 33 33 32 30 28 26
Wind_Direction
152 149 139 125 115 115 117 117 120 79 42 67 82 91 122 184 196 203 210 214 215 216 213 207 202 199 197 202 209 211 213 217 221 224 224 224 227 226 220 219 221 224 233 242 244 243 239 233 233 232 239 248 247 246 248 252 254 248 245 251 254 254 253
173 169 154 138 130 125 117 135 167 276 296 332 356 355 358 352 353 219 216 216 216 218 217 210 205 204 201 199 205 212 217 221 225 224 222 223 225 222 217 217 224 231 239 242 245 248 245 241 245 245 240 235 239 250 254 243 231 227 236 244 247 248 246
198 193 183 167 154 173 313 301 293 281 268 270 283 299 330 351 357 356 269 227 219 218 216 211 202 200 200 199 204 214 221 227 231 229 227 228 227 225 222 222 229 239 248 251 249 248 246 245 248 250 247 234 230 247 252 228 207 212 227 230 222 227 229
213 215 221 246 297 315 313 304 294 282 267 251 246 256 272 294 298 296 268 235 220 218 218 212 203 199 202 206 214 223 228 232 234 234 233 232 231 231 229 228 229 233 240 246 245 242 241 243 249 252 251 245 240 244 234 211 208 213 222 222 215 222 230
218 228 245 269 297 312 312 307 304 293 274 256 246 243 245 263 272 253 164 205 212 220 230 224 210 205 205 207 216 225 228 227 228 232 234 234 235 236 231 227 224 223 227 231 231 229 226 228 237 244 247 248 245 236 219 208 215 224 227 220 216 223 229
226 239 260 278 297 309 313 314 321 318 293 267 254 248 236 242 257 253 179 181 204 215 227 224 210 206 205 201 205 214 220 222 228 237 239 236 235 234 231 227 225 225 228 229 224 221 219 220 228 236 244 244 226 211 212 204 203 214 217 212 211 209 204
232 249 271 287 298 305 311 316 321 320 297 268 252 250 238 228 238 235 200 179 205 217 212 199 192 196 202 200 200 213 228 238 241 240 236 233 232 234 234 233 234 235 233 230 226 223 222 223 229 236 244 243 224 205 208 197 181 181 180 182 190 184 170
234 253 279 291 294 296 302 310 314 304 274 253 239 236 230 223 226 220 193 166 174 197 182 178 181 184 191 196 203 218 236 244 241 227 216 219 226 233 239 240 242 242 238 231 226 226 226 228 237 241 239 239 232 216 207 187 166 164 161 161 171 162 146
238 255 275 282 283 288 294 302 308 300 264 234 220 211 209 214 214 204 183 163 155 159 161 167 174 180 185 191 200 210 218 224 224 211 204 209 215 221 230 236 237 236 235 231 229 229 233 241 250 253 250 239 225 217 204 179 161 154 152 158 165 153 139
244 257 267 273 278 284 292 302 309 310 250 203 199 191 191 205 204 190 171 157 148 147 156 168 174 179 184 189 194 196 198 208 202 192 195 200 205 208 211 220 227 229 231 239 243 242 243 248 255 266 277 267 209 193 189 175 163 154 155 166 169 159 168
248 257 264 271 279 286 294 305 315 323 348 162 171 174 182 194 191 176 161 150 144 145 157 172 175 174 177 181 189 191 187 200 200 183 181 189 197 202 206 216 226 230 231 237 244 246 247 250 257 274 291 295 195 179 176 165 162 164 167 174 179 178 194
250 258 264 269 279 290 296 303 315 320 304 165 168 174 180 184 176 164 156 147 143 148 158 168 169 166 168 172 180 182 174 184 185 172 174 184 191 196 204 214 223 230 231 232 236 242 245 250 259 272 282 290 253 196 175 160 166 185 189 193 200 202 214
250 259 261 265 277 284 290 299 305 303 277 187 180 183 185 183 172 158 154 147 144 151 157 159 157 158 162 166 173 176 178 188 186 179 185 194 194 194 201 211 221 226 227 225 227 233 241 246 251 255 257 264 254 211 185 177 187 204 207 206 210 213 226
248 256 251 254 266 266 278 291 290 288 279 205 182 184 191 187 170 155 153 149 144 145 147 147 147 147 148 147 149 155 167 182 186 186 194 201 197 191 194 206 217 221 217 212 211 215 222 224 223 223 234 249 249 223 210 213 219 232 230 220 217 220 234
245 248 241 238 236 246 268 277 271 272 274 221 186 183 191 186 167 155 152 146 140 138 139 140 138 133 128 124 123 131 145 158 169 175 180 185 184 179 179 186 200 208 205 198 197 203 213 219 220 221 228 242 249 242 241 241 241 248 250 244 239 239 247
242 241 232 223 220 237 256 251 244 241 217 201 187 183 187 180 164 152 146 142 137 138 139 136 132 127 123 120 118 118 127 139 147 150 154 162 167 166 165 168 179 189 191 191 197 208 228 243 247 242 239 248 254 251 250 251 253 256 259 262 259 256 258
239 239 226 215 217 230 236 220 212 193 163 177 183 182 181 174 161 150 144 142 139 141 142 136 131 130 129 129 124 120 128 141 145 147 152 158 161 161 160 164 175 185 190 197 209 226 246 259 265 259 256 261 268 267 264 263 265 268 270 270 267 263 262
230 233 225 218 220 220 214 201 188 167 151 162 175 180 179 174 163 153 148 146 144 146 147 139 137 137 139 142 140 137 145 154 154 153 156 161 165 166 168 174 187 201 210 218 229 245 261 271 276 273 267 268 273 276 274 271 271 274 275 273 270 267 264
225 227 223 220 218 207 197 188 175 160 152 157 169 176 178 179 174 164 159 157 154 156 157 152 147 146 148 155 157 156 160 167 168 165 167 174 178 184 192 200 213 230 243 251 260 269 275 279 282 283 282 281 282 282 279 277 277 277 275 270 266 263 261
215 217 218 215 211 203 192 180 166 154 151 159 166 171 178 185 186 180 173 171 170 172 175 173 167 163 164 171 177 178 178 181 184 184 187 194 198 206 217 228 240 252 260 267 272 277 280 283 286 288 290 292 293 292 289 286 285 283 279 272 265 262 260
197 202 212 211 208 203 190 179 165 150 149 157 162 167 177 185 193 197 193 189 190 191 193 194 192 190 188 190 196 200 201 201 203 206 207 211 217 226 237 246 251 256 262 266 270 274 279 283 288 290 290 291 292 293 292 291 290 288 283 278 273 271 268
187 193 203 206 208 204 193 189 177 156 149 151 156 168 181 187 195 204 207 208 210 211 212 213 215 216 216 216 217 220 224 226 228 230 233 236 238 239 243 250 255 259 261 264 268 272 276 281 288 291 290 287 284 286 289 289 288 287 284 280 277 276 274
193 194 195 195 200 198 195 197 191 174 161 157 164 179 189 193 197 205 214 220 223 225 227 228 229 231 232 234 236 240 243 246 248 249 250 253 254 254 254 256 259 261 262 264 267 271 274 280 285 288 287 285 282 283 288 289 288 286 283 279 276 274 274
199 202 200 195 195 197 201 204 202 195 185 181 185 190 196 200 201 206 214 221 226 229 232 234 236 238 240 243 247 250 251 252 253 255 256 257 258 260 261 262 264 265 267 268 270 272 274 278 281 283 283 281 279 280 284 287 288 288 284 278 274 271 270
200 206 208 202 199 202 207 211 214 215 213 210 207 204 206 210 209 211 215 219 223 225 229 234 238 240 243 247 252 255 257 257 257 257 259 260 261 263 264 266 267 268 268 269 270 271 272 274 276 277 277 277 276 278 282 284 286 288 285 278 271 268 266
207 208 210 210 210 212 215 217 222 227 228 226 224 220 219 219 218 221 223 225 227 225 225 229 234 238 241 244 247 250 254 257 259 259 261 263 264 266 269 271 273 273 273 272 271 270 270 271 272 271 271 273 274 276 279 280 282 285 284 277 268 264 264
224 221 219 220 222 226 229 230 231 232 233 235 239 242 241 234 231 236 242 245 247 245 239 237 237 240 242 242 243 244 246 248 251 253 256 259 261 264 268 270 272 273 274 274 274 274 272 270 269 269 269 271 273 274 275 277 279 281 282 277 266 260 260
234 232 230 230 232 235 239 240 240 239 240 244 250 255 255 250 247 252 255 256 258 259 258 256 253 251 251 249 247 246 245 245 247 250 253 255 258 261 264 265 266 268 270 271 272 273 271 265 262 264 269 273 275 275 274 274 277 279 279 274 265 257 256
232 233 234 236 237 238 241 241 241 241 241 244 249 253 255 254 255 258 258 258 260 260 261 263 263 262 261 260 259 258 257 257 256 256 257 258 261 263 263 264 265 266 269 270 269 269 268 263 258 261 270 274 275 275 275 274 275 276 275 271 263 256 256
231 231 231 232 233 235 238 240 242 243 243 245 250 254 257 259 261 263 263 262 262 261 261 264 265 265 264 264 265 265 267 268 267 265 266 267 268 269 268 268 267 267 269 271 270 268 267 264 262 265 270 272 273 276 276 272 269 270 270 267 260 256 258
234 231 230 233 235 237 239 240 242 244 246 249 253 256 258 259 260 261 262 263 263 262 261 260 262 263 264 266 267 267 267 267 266 266 267 268 269 270 271 270 270 269 268 268 268 267 266 265 264 265 267 270 273 277 276 271 265 263 263 259 255 254 257
235 230 229 232 235 236 239 241 243 246 248 250 252 254 255 256 256 257 258 259 261 261 261 260 260 261 262 263 265 266 266 266 265 266 266 266 267 269 270 269 269 269 268 266 266 266 266 266 264 264 267 271 272 273 274 269 260 256 254 249 249 251 252
237 234 233 234 236 238 240 243 246 249 251 252 253 254 254 255 255 256 257 259 260 261 261 261 261 262 263 263 264 264 265 265 266 266 266 266 266 266 267 268 268 268 267 266 265 265 266 266 266 266 269 271 271 272 272 264 251 246 244 241 243 247 250
238 239 240 241 243 245 248 250 253 255 257 258 259 259 259 259 260 261 261 262 262 262 262 263 263 264 265 266 266 266 266 266 267 267 266 265 264 265 266 267 267 267 266 265 264 264 265 267 267 267 269 271 273 272 264 249 237 235 236 238 240 245 251
246 246 247 248 250 252 255 258 259 260 260 261 262 263 264 265 266 266 266 265 264 264 264 264 265 267 268 268 267 267 266 266 266 265 264 264 265 265 265 264 264 266 266 265 264 264 265 266 266 267 266 269 272 265 246 228 225 229 233 236 240 245 250
253 254 254 255 257 258 260 261 262 263 264 265 266 267 268 268 268 268 267 266 265 265 265 265 266 267 267 268 268 267 267 266 264 263 264 264 264 263 261 259 260 262 263 263 264 264 265 264 264 266 266 267 268 258 237 220 221 228 232 236 240 245 249
257 259 260 261 263 264 265 266 267 268 269 269 270 270 270 270 270 270 269 268 266 265 265 266 267 267 267 267 267 267 267 267 265 264 263 263 262 260 257 255 256 258 260 262 263 263 264 265 265 266 266 264 260 249 231 219 221 228 233 237 241 244 247